Weather History for KBDN - October, 2012

Change the Weather History Date:

Friday, October 19, 2012

  Actual Average (KRDM) Record (KRDM)
Temperature  
Mean Temperature 57 °F 46 °F  
Max Temperature 64 °F 62 °F 83 °F (1974)
Min Temperature 50 °F 31 °F 14 °F (1982)
Degree Days  
Heating Degree Days 8 19  
Month to date heating degree days 298  
Since 1 July heating degree days 697  
Cooling Degree Days 0 0  
Month to date cooling degree days 0  
Year to date cooling degree days 222  
Growing Degree Days 7 (Base 50)    
Moisture  
Dew Point 31 °F    
Average Humidity 39    
Maximum Humidity 58    
Minimum Humidity 25    
Precipitation  
Precipitation 0.00 in 0.02 in 0.38 in (1984)
Month to date precipitation 0.34  
Year to date precipitation 6.48  
Sea Level Pressure  
Sea Level Pressure 29.93 in    
Wind  
Wind Speed 9 mph (SW)    
Max Wind Speed 22 mph    
Max Gust Speed 31 mph    
Visibility 10 miles    
Events Rain    
T = Trace of Precipitation, MM = Missing Value Source: NWS Daily Summary

Daily Weather History Graph

Daily Weather History Graph

Search for Another Location

Airport or City:

Trip Planner

Search our weather history database for the weather conditions in past years. The results will help you decide how hot, cold, wet, or windy it might be!

Date:

Astronomy

Oct. 19, 2012 Rise Set
Actual Time 7:25 AM PDT 6:13 PM PDT
Civil Twilight 6:55 AM PDT 6:42 PM PDT
Nautical Twilight 6:22 AM PDT 7:16 PM PDT
Astronomical Twilight 5:48 AM PDT 7:49 PM PDT
Moon 12:20 PM PDT (10/19) 9:50 PM PDT (10/19)
Length of Visible Light 11h 46m
Length of Day
10h 48m
Waxing Crescent, 24% of the Moon is Illuminated
Oct 19
Waxing Crescent
Oct 21
First Quarter
Oct 29
Full
Nov 6
Last Quarter
Nov 13
New

Hourly Weather History & Observations

Time (PDT) Temp. Dew Point Humidity Pressure Visibility Wind Dir Wind Speed Gust Speed Precip Events Conditions
12:15 AM 59.0 °F 23.0 °F 25% 30.04 in 10.0 mi WSW 8.1 mph - N/A   Clear
12:35 AM 59.0 °F 23.0 °F 25% 30.04 in 10.0 mi WSW 6.9 mph - N/A   Clear
12:55 AM 57.2 °F 23.0 °F 27% 30.04 in 10.0 mi WSW 6.9 mph - N/A   Clear
1:15 AM 57.2 °F 23.0 °F 27% 30.04 in 10.0 mi WSW 6.9 mph - N/A   Clear
1:35 AM 57.2 °F 24.8 °F 29% 30.03 in 10.0 mi SSW 9.2 mph - N/A   Clear
1:55 AM 55.4 °F 24.8 °F 31% 30.03 in 10.0 mi South 5.8 mph - N/A   Clear
2:15 AM 53.6 °F 24.8 °F 33% 30.01 in 10.0 mi SSE 5.8 mph - N/A   Clear
2:35 AM 53.6 °F 24.8 °F 33% 30.01 in 10.0 mi SE 3.5 mph - N/A   Partly Cloudy
2:55 AM 51.8 °F 26.6 °F 38% 30.01 in 10.0 mi SSW 4.6 mph - N/A   Mostly Cloudy
3:15 AM 50.0 °F 26.6 °F 40% 30.00 in 10.0 mi SW 8.1 mph - N/A   Partly Cloudy
3:35 AM 53.6 °F 24.8 °F 33% 30.00 in 10.0 mi SSW 9.2 mph - N/A   Partly Cloudy
3:55 AM 53.6 °F 23.0 °F 30% 29.99 in 10.0 mi SW 9.2 mph - N/A   Partly Cloudy
4:15 AM 55.4 °F 23.0 °F 29% 29.99 in 10.0 mi SW 9.2 mph - N/A   Partly Cloudy
4:35 AM 55.4 °F 23.0 °F 29% 29.99 in 10.0 mi SSW 10.4 mph - N/A   Clear
4:55 AM 55.4 °F 23.0 °F 29% 29.98 in 10.0 mi SSW 5.8 mph - N/A   Clear
5:15 AM 51.8 °F 24.8 °F 35% 29.98 in 10.0 mi East 6.9 mph - N/A   Clear
5:35 AM 53.6 °F 23.0 °F 30% 29.99 in 10.0 mi SSE 4.6 mph - N/A   Partly Cloudy
5:55 AM 53.6 °F 24.8 °F 33% 29.99 in 10.0 mi SE 4.6 mph - N/A   Partly Cloudy
6:15 AM 53.6 °F 24.8 °F 33% 29.98 in 10.0 mi SE 4.6 mph - N/A   Clear
6:35 AM 55.4 °F 24.8 °F 31% 29.98 in 10.0 mi SSW 10.4 mph - N/A   Clear
6:55 AM 55.4 °F 24.8 °F 31% 29.98 in 10.0 mi SSW 9.2 mph - N/A   Clear
7:15 AM 55.4 °F 24.8 °F 31% 29.98 in 10.0 mi SW 9.2 mph - N/A   Clear
7:35 AM 55.4 °F 24.8 °F 31% 29.98 in 10.0 mi SW 11.5 mph - N/A   Partly Cloudy
7:55 AM 57.2 °F 24.8 °F 29% 29.98 in 10.0 mi SW 12.7 mph - N/A   Partly Cloudy
8:15 AM 57.2 °F 24.8 °F 29% 29.97 in 10.0 mi SW 15.0 mph - N/A   Mostly Cloudy
8:35 AM 57.2 °F 26.6 °F 31% 29.98 in 10.0 mi SW 11.5 mph - N/A   Mostly Cloudy
8:55 AM 55.4 °F 26.6 °F 33% 29.98 in 10.0 mi SW 12.7 mph - N/A   Mostly Cloudy
9:15 AM 57.2 °F 26.6 °F 31% 29.98 in 10.0 mi SW 12.7 mph 18.4 mph N/A   Partly Cloudy
9:35 AM 57.2 °F 26.6 °F 31% 29.98 in 10.0 mi SW 13.8 mph - N/A   Scattered Clouds
9:55 AM 57.2 °F 26.6 °F 31% 29.98 in 10.0 mi SW 16.1 mph 20.7 mph N/A   Scattered Clouds
10:15 AM 59.0 °F 28.4 °F 31% 29.98 in 10.0 mi SW 19.6 mph 31.1 mph N/A   Partly Cloudy
10:35 AM 59.0 °F 28.4 °F 31% 29.97 in 10.0 mi SW 17.3 mph 21.9 mph N/A   Partly Cloudy
10:55 AM 59.0 °F 28.4 °F 31% 29.96 in 10.0 mi SW 17.3 mph - N/A   Partly Cloudy
11:15 AM 62.6 °F 28.4 °F 27% 29.96 in 10.0 mi SW 21.9 mph 25.3 mph N/A   Clear
11:35 AM 59.0 °F 30.2 °F 34% 29.96 in 10.0 mi SW 16.1 mph - N/A   Partly Cloudy
11:55 AM 59.0 °F 32.0 °F 36% 29.96 in 9.0 mi SW 12.7 mph 23.0 mph N/A   Mostly Cloudy
12:15 PM 59.0 °F 32.0 °F 36% 29.95 in 10.0 mi SW 10.4 mph - N/A   Mostly Cloudy
12:35 PM 59.0 °F 33.8 °F 39% 29.94 in 10.0 mi WSW 8.1 mph - N/A   Overcast
12:55 PM 60.8 °F 35.6 °F 39% 29.93 in 10.0 mi WSW 9.2 mph - N/A   Mostly Cloudy
1:15 PM 60.8 °F 35.6 °F 39% 29.91 in 10.0 mi WSW 9.2 mph 24.2 mph N/A   Mostly Cloudy
1:35 PM 62.6 °F 35.6 °F 37% 29.90 in 10.0 mi WSW 3.5 mph - N/A   Overcast
1:55 PM 64.4 °F 35.6 °F 34% 29.89 in 10.0 mi WSW 13.8 mph 19.6 mph N/A   Mostly Cloudy
2:15 PM 64.4 °F 37.4 °F 37% 29.88 in 10.0 mi West 18.4 mph 27.6 mph N/A Rain Light Rain
2:35 PM 64.4 °F 37.4 °F 37% 29.88 in 10.0 mi West 11.5 mph 19.6 mph N/A   Partly Cloudy
2:55 PM 62.6 °F 39.2 °F 42% 29.88 in 8.0 mi WSW 16.1 mph 23.0 mph N/A   Mostly Cloudy
3:15 PM 62.6 °F 39.2 °F 42% 29.88 in 10.0 mi SW 16.1 mph 23.0 mph N/A   Mostly Cloudy
3:35 PM 60.8 °F 39.2 °F 45% 29.87 in 10.0 mi SSW 17.3 mph - N/A   Mostly Cloudy
3:55 PM 59.0 °F 39.2 °F 48% 29.88 in 10.0 mi SW 15.0 mph 20.7 mph N/A   Overcast
4:15 PM 59.0 °F 41.0 °F 51% 29.88 in 10.0 mi SSW 17.3 mph 23.0 mph N/A   Overcast
4:35 PM 57.2 °F 41.0 °F 55% 29.87 in 10.0 mi SSW 11.5 mph 17.3 mph N/A   Mostly Cloudy
4:55 PM 57.2 °F 41.0 °F 55% 29.87 in 10.0 mi SSW 13.8 mph 17.3 mph N/A   Overcast
5:15 PM 57.2 °F 41.0 °F 55% 29.86 in 10.0 mi South 10.4 mph 16.1 mph N/A   Overcast
5:35 PM 57.2 °F 41.0 °F 55% 29.84 in 10.0 mi South 11.5 mph - N/A   Overcast
5:55 PM 57.2 °F 41.0 °F 55% 29.84 in 10.0 mi South 8.1 mph - N/A   Overcast
6:15 PM 57.2 °F 41.0 °F 55% 29.84 in 10.0 mi West 3.5 mph - N/A   Overcast
6:35 PM 57.2 °F 39.2 °F 51% 29.84 in 10.0 mi North 8.1 mph - N/A   Overcast
6:55 PM 55.4 °F 41.0 °F 58% 29.84 in 10.0 mi WSW 3.5 mph - N/A   Overcast
7:15 PM 55.4 °F 41.0 °F 58% 29.84 in 10.0 mi South 3.5 mph - N/A   Overcast
7:35 PM 55.4 °F 39.2 °F 54% 29.85 in 10.0 mi West 6.9 mph - N/A   Mostly Cloudy
7:55 PM 55.4 °F 39.2 °F 54% 29.84 in 10.0 mi SW 13.8 mph - N/A   Scattered Clouds
8:15 PM 53.6 °F 37.4 °F 54% 29.82 in 10.0 mi SSW 13.8 mph 20.7 mph N/A   Clear
8:35 PM 55.4 °F 35.6 °F 47% 29.83 in 10.0 mi SW 15.0 mph 31.1 mph N/A   Clear
8:55 PM 53.6 °F 39.2 °F 58% 29.85 in 10.0 mi NW 4.6 mph - N/A   Partly Cloudy
9:15 PM 53.6 °F 37.4 °F 54% 29.85 in 10.0 mi West 10.4 mph 17.3 mph N/A   Partly Cloudy
9:35 PM 53.6 °F 30.2 °F 41% 29.84 in 10.0 mi WSW 17.3 mph 23.0 mph N/A   Partly Cloudy
9:55 PM 53.6 °F 32.0 °F 44% 29.85 in 10.0 mi WSW 12.7 mph 28.8 mph N/A   Clear
10:15 PM 53.6 °F 32.0 °F 44% 29.85 in 10.0 mi WSW 6.9 mph - N/A   Partly Cloudy
10:35 PM 51.8 °F 32.0 °F 47% 29.86 in 10.0 mi WSW 10.4 mph - N/A   Partly Cloudy
10:55 PM 53.6 °F 32.0 °F 44% 29.86 in 10.0 mi SSW 11.5 mph 20.7 mph N/A   Mostly Cloudy
11:15 PM 51.8 °F 32.0 °F 47% 29.86 in 10.0 mi SSW 8.1 mph - N/A   Mostly Cloudy
11:35 PM 50.0 °F 33.8 °F 54% 29.87 in 10.0 mi South 5.8 mph - N/A   Mostly Cloudy
11:55 PM 50.0 °F 32.0 °F 50% 29.87 in 10.0 mi Calm Calm - N/A   Mostly Cloudy